Location: Baggettsville
(36.4767°N, 86.7303°W)
Time: 09:22:19
(UTC+00:00)

Cosmos 1812 Rocket - Pass Details

Date: 29 October 2020
Orbit: 605 x 632 km, 82.5° (Epoch: 04 December)

Event Time Altitude Azimuth Distance (km) Brightness Sun altitude
Rises 23:46:34 0° 164° (SSE) 2,891 6.9 -11.3°
Reaches altitude 10° 23:48:57 10° 155° (SSE) 1,985 6.0 -11.8°
Maximum altitude 23:52:54 33° 91° (E) 1,044 4.2 -12.6°
Drops below altitude 10° 23:56:49 10° 27° (NNE) 1,982 5.8 -13.4°
Sets 23:59:12 0° 18° (NNE) 2,887 6.7 -13.9°
